Verlustenergielastgang Verteilungsnetz Vattenfall Europe Distribution Berlin GmbH;
Jahr 2006;

MAX MW;80,186
Summe MWh;410.832,85

;MW

01.01.2006 00:15;40,535
01.01.2006 00:30;40,453
01.01.2006 00:45;40,37
01.01.2006 01:00;40,117
01.01.2006 01:15;39,737
01.01.2006 01:30;39,301
01.01.2006 01:45;38,554
01.01.2006 02:00;37,891
01.01.2006 02:15;37,628
01.01.2006 02:30;37,071
01.01.2006 02:45;36,482
01.01.2006 03:00;35,832
01.01.2006 03:15;35,214
01.01.2006 03:30;34,556
01.01.2006 03:45;34
01.01.2006 04:00;33,651
01.01.2006 04:15;33,353
01.01.2006 04:30;33,024
01.01.2006 04:45;32,789
01.01.2006 05:00;32,509
01.01.2006 05:15;32,442
01.01.2006 05:30;32,517
01.01.2006 05:45;32,593
01.01.2006 06:00;32,612
01.01.2006 06:15;32,828
01.01.2006 06:30;32,838
01.01.2006 06:45;32,855
01.01.2006 07:00;32,873
01.01.2006 07:15;33,072
01.01.2006 07:30;33,248
01.01.2006 07:45;33,368
01.01.2006 08:00;33,484
01.01.2006 08:15;33,387
01.01.2006 08:30;33,588
01.01.2006 08:45;33,733
01.01.2006 09:00;33,948
01.01.2006 09:15;34,428
01.01.2006 09:30;34,881
01.01.2006 09:45;35,401
01.01.2006 10:00;35,827
01.01.2006 10:15;36,524
01.01.2006 10:30;37,027
01.01.2006 10:45;37,7
01.01.2006 11:00;38,261
01.01.2006 11:15;38,884
01.01.2006 11:30;39,611
01.01.2006 11:45;40,383
01.01.2006 12:00;40,94
01.01.2006 12:15;41,387
01.01.2006 12:30;41,675
01.01.2006 12:45;41,735
01.01.2006 13:00;41,612
01.01.2006 13:15;41,548
01.01.2006 13:30;41,511
01.01.2006 13:45;41,404
01.01.2006 14:00;41,308
01.01.2006 14:15;41,332
01.01.2006 14:30;41,185
01.01.2006 14:45;41,246
01.01.2006 15:00;41,2
01.01.2006 15:15;41,084
01.01.2006 15:30;41,172
01.01.2006 15:45;41,515
01.01.2006 16:00;42,256
01.01.2006 16:15;44,22
01.01.2006 16:30;46,364
01.01.2006 16:45;48,959
01.01.2006 17:00;50,092
01.01.2006 17:15;50,932
01.01.2006 17:30;51,455
01.01.2006 17:45;52,081
01.01.2006 18:00;52,243
01.01.2006 18:15;52,573
01.01.2006 18:30;52,761
01.01.2006 18:45;52,817
01.01.2006 19:00;52,827
01.01.2006 19:15;52,699
01.01.2006 19:30;52,502
01.01.2006 19:45;52
01.01.2006 20:00;51,482
01.01.2006 20:15;50,99
01.01.2006 20:30;49,39
01.01.2006 20:45;47,921
01.01.2006 21:00;46,935
01.01.2006 21:15;45,718
01.01.2006 21:30;44,891
01.01.2006 21:45;43,868
01.01.2006 22:00;44,617
01.01.2006 22:15;44,007
01.01.2006 22:30;43,634
01.01.2006 22:45;42,748
01.01.2006 23:00;41,962
01.01.2006 23:15;41,083
01.01.2006 23:30;40,661
01.01.2006 23:45;40,204
02.01.2006 00:00;39,748
02.01.2006 00:15;39,017
02.01.2006 00:30;38,221
02.01.2006 00:45;37,497
02.01.2006 01:00;36,509
02.01.2006 01:15;35,786
02.01.2006 01:30;35,269
02.01.2006 01:45;34,694
02.01.2006 02:00;34,072
02.01.2006 02:15;33,56
02.01.2006 02:30;33,3
02.01.2006 02:45;32,902
02.01.2006 03:00;32,563
02.01.2006 03:15;32,431
02.01.2006 03:30;32,326
02.01.2006 03:45;32,297
02.01.2006 04:00;32,217
02.01.2006 04:15;32,659
02.01.2006 04:30;33,011
02.01.2006 04:45;33,388
02.01.2006 05:00;33,775
02.01.2006 05:15;34,824
02.01.2006 05:30;35,499
02.01.2006 05:45;36,469
02.01.2006 06:00;37,678
02.01.2006 06:15;39,997
02.01.2006 06:30;41,604
02.01.2006 06:45;42,897
02.01.2006 07:00;44,528
02.01.2006 07:15;46,665
02.01.2006 07:30;48,416
02.01.2006 07:45;50,398
02.01.2006 08:00;52,098
02.01.2006 08:15;53,591
02.01.2006 08:30;55,054
02.01.2006 08:45;55,868
02.01.2006 09:00;56,597
02.01.2006 09:15;57,462
02.01.2006 09:30;58,461
02.01.2006 09:45;59,177
02.01.2006 10:00;60,212
02.01.2006 10:15;61,143
02.01.2006 10:30;61,408
02.01.2006 10:45;61,71
02.01.2006 11:00;61,869
02.01.2006 11:15;62,333
02.01.2006 11:30;62,525
02.01.2006 11:45;62,618
02.01.2006 12:00;62,769
02.01.2006 12:15;63,215
02.01.2006 12:30;63,1
02.01.2006 12:45;62,964
02.01.2006 13:00;62,442
02.01.2006 13:15;62,483
02.01.2006 13:30;62,133
02.01.2006 13:45;61,689
02.01.2006 14:00;61,735
02.01.2006 14:15;61,399
02.01.2006 14:30;61,258
02.01.2006 14:45;61,333
02.01.2006 15:00;61,676
02.01.2006 15:15;62,399
02.01.2006 15:30;62,85
02.01.2006 15:45;63,132
02.01.2006 16:00;64,113
02.01.2006 16:15;66,081
02.01.2006 16:30;68,179
02.01.2006 16:45;69,939
02.01.2006 17:00;70,386
02.01.2006 17:15;71,054
02.01.2006 17:30;71,495
02.01.2006 17:45;71,531
02.01.2006 18:00;71,605
02.01.2006 18:15;71,336
02.01.2006 18:30;70,837
02.01.2006 18:45;70,88
02.01.2006 19:00;70,543
02.01.2006 19:15;69,624
02.01.2006 19:30;67,818
02.01.2006 19:45;66,925
02.01.2006 20:00;66,272
02.01.2006 20:15;63,945
02.01.2006 20:30;61,191
02.01.2006 20:45;58,343
02.01.2006 21:00;56,34
02.01.2006 21:15;54,581
02.01.2006 21:30;53,049
02.01.2006 21:45;51,537
02.01.2006 22:00;51,045
02.01.2006 22:15;50,294
02.01.2006 22:30;48,826
02.01.2006 22:45;47,826
02.01.2006 23:00;46,262
02.01.2006 23:15;45,092
02.01.2006 23:30;44,464
02.01.2006 23:45;43,999
03.01.2006 00:00;43,312
03.01.2006 00:15;42,47
03.01.2006 00:30;41,5
03.01.2006 00:45;40,419
03.01.2006 01:00;39,392
03.01.2006 01:15;38,553
03.01.2006 01:30;37,92
03.01.2006 01:45;37,264
03.01.2006 02:00;36,632
03.01.2006 02:15;35,963
03.01.2006 02:30;35,67
03.01.2006 02:45;35,214
03.01.2006 03:00;34,878
03.01.2006 03:15;34,639
03.01.2006 03:30;34,605
03.01.2006 03:45;34,575
03.01.2006 04:00;34,579
03.01.2006 04:15;34,962
03.01.2006 04:30;35,158
03.01.2006 04:45;35,581
03.01.2006 05:00;36,108
03.01.2006 05:15;37,283
03.01.2006 05:30;37,844
03.01.2006 05:45;38,741
03.01.2006 06:00;40,023
03.01.2006 06:15;42,436
03.01.2006 06:30;44,213
03.01.2006 06:45;45,645
03.01.2006 07:00;47,022
03.01.2006 07:15;49,257
03.01.2006 07:30;51,568
03.01.2006 07:45;53,596
03.01.2006 08:00;55,444
03.01.2006 08:15;57,32
03.01.2006 08:30;58,59
03.01.2006 08:45;59,362
03.01.2006 09:00;60,131
03.01.2006 09:15;61,216
03.01.2006 09:30;62,284
03.01.2006 09:45;63,238
03.01.2006 10:00;63,904
03.01.2006 10:15;64,67
03.01.2006 10:30;64,803
03.01.2006 10:45;64,901
03.01.2006 11:00;65,133
03.01.2006 11:15;65,495
03.01.2006 11:30;65,854
03.01.2006 11:45;65,92
03.01.2006 12:00;66,179
03.01.2006 12:15;66,456
03.01.2006 12:30;66,596
03.01.2006 12:45;66,348
03.01.2006 13:00;66,085
03.01.2006 13:15;65,73
03.01.2006 13:30;65,45
03.01.2006 13:45;65,016
03.01.2006 14:00;64,796
03.01.2006 14:15;64,696
03.01.2006 14:30;64,679
03.01.2006 14:45;64,308
03.01.2006 15:00;64,546
03.01.2006 15:15;65,249
03.01.2006 15:30;65,412
03.01.2006 15:45;65,681
03.01.2006 16:00;66,72
03.01.2006 16:15;68,468
03.01.2006 16:30;70,192
03.01.2006 16:45;71,945
03.01.2006 17:00;72,44
03.01.2006 17:15;73,609
03.01.2006 17:30;73,965
03.01.2006 17:45;74,073
03.01.2006 18:00;74,21
03.01.2006 18:15;73,946
03.01.2006 18:30;73,189
03.01.2006 18:45;73,007
03.01.2006 19:00;73,021
03.01.2006 19:15;72,225
03.01.2006 19:30;70,585
03.01.2006 19:45;69,337
03.01.2006 20:00;68,56
03.01.2006 20:15;66,285
03.01.2006 20:30;63,193
03.01.2006 20:45;60
03.01.2006 21:00;57,553
03.01.2006 21:15;55,579
03.01.2006 21:30;54,58
03.01.2006 21:45;53,362
03.01.2006 22:00;52,457
03.01.2006 22:15;51,534
03.01.2006 22:30;50,52
03.01.2006 22:45;49,23
03.01.2006 23:00;47,439
03.01.2006 23:15;45,633
03.01.2006 23:30;44,47
03.01.2006 23:45;44,042
04.01.2006 00:00;42,851
04.01.2006 00:15;41,922
04.01.2006 00:30;41,042
04.01.2006 00:45;40,308
04.01.2006 01:00;39,484
04.01.2006 01:15;38,684
04.01.2006 01:30;38,16
04.01.2006 01:45;37,507
04.01.2006 02:00;37,068
04.01.2006 02:15;36,51
04.01.2006 02:30;36,115
04.01.2006 02:45;35,676
04.01.2006 03:00;35,275
04.01.2006 03:15;34,898
04.01.2006 03:30;34,539
04.01.2006 03:45;34,439
04.01.2006 04:00;34,43
04.01.2006 04:15;34,805
04.01.2006 04:30;35,151
04.01.2006 04:45;35,688
04.01.2006 05:00;36,099
04.01.2006 05:15;37,387
04.01.2006 05:30;38,41
04.01.2006 05:45;39,558
04.01.2006 06:00;41,028
04.01.2006 06:15;44,245
04.01.2006 06:30;46,583
04.01.2006 06:45;49,073
04.01.2006 07:00;51,435
04.01.2006 07:15;54,514
04.01.2006 07:30;56,252
04.01.2006 07:45;58,395
04.01.2006 08:00;60,028
04.01.2006 08:15;61,959
04.01.2006 08:30;63,26
04.01.2006 08:45;63,791
04.01.2006 09:00;64,212
04.01.2006 09:15;64,967
04.01.2006 09:30;65,425
04.01.2006 09:45;65,587
04.01.2006 10:00;65,708
04.01.2006 10:15;66,052
04.01.2006 10:30;65,974
04.01.2006 10:45;65,79
04.01.2006 11:00;65,716
04.01.2006 11:15;65,717
04.01.2006 11:30;65,816
04.01.2006 11:45;65,755
04.01.2006 12:00;65,851
04.01.2006 12:15;66,244
04.01.2006 12:30;66,276
04.01.2006 12:45;66,148
04.01.2006 13:00;65,883
04.01.2006 13:15;65,585
04.01.2006 13:30;65,044
04.01.2006 13:45;64,555
04.01.2006 14:00;64,03
04.01.2006 14:15;63,672
04.01.2006 14:30;63,486
04.01.2006 14:45;63,569
04.01.2006 15:00;63,858
04.01.2006 15:15;64,296
04.01.2006 15:30;64,983
04.01.2006 15:45;65,735
04.01.2006 16:00;66,895
04.01.2006 16:15;68,967
04.01.2006 16:30;71,104
04.01.2006 16:45;73,364
04.01.2006 17:00;74,348
04.01.2006 17:15;75,248
04.01.2006 17:30;75,615
04.01.2006 17:45;75,614
04.01.2006 18:00;75,487
04.01.2006 18:15;75,1
04.01.2006 18:30;74,732
04.01.2006 18:45;74,206
04.01.2006 19:00;74,214
04.01.2006 19:15;73,077
04.01.2006 19:30;71,268
04.01.2006 19:45;69,968
04.01.2006 20:00;68,796
04.01.2006 20:15;66,602
04.01.2006 20:30;63,025
04.01.2006 20:45;60,164
04.01.2006 21:00;58,13
04.01.2006 21:15;55,947
04.01.2006 21:30;54,394
04.01.2006 21:45;53,541
04.01.2006 22:00;52,635
04.01.2006 22:15;51,809
04.01.2006 22:30;50,22
04.01.2006 22:45;48,984
04.01.2006 23:00;47,249
04.01.2006 23:15;45,549
04.01.2006 23:30;44,417
04.01.2006 23:45;44,158
05.01.2006 00:00;43,088
05.01.2006 00:15;41,971
05.01.2006 00:30;41,172
05.01.2006 00:45;40,387
05.01.2006 01:00;39,558
05.01.2006 01:15;38,514
05.01.2006 01:30;37,945
05.01.2006 01:45;37,43
05.01.2006 02:00;37,094
05.01.2006 02:15;36,666
05.01.2006 02:30;36,295
05.01.2006 02:45;35,81
05.01.2006 03:00;35,476
05.01.2006 03:15;35,11
05.01.2006 03:30;34,763
05.01.2006 03:45;34,604
05.01.2006 04:00;34,575
05.01.2006 04:15;34,964
05.01.2006 04:30;35,293
05.01.2006 04:45;35,706
05.01.2006 05:00;36,295
05.01.2006 05:15;37,474
05.01.2006 05:30;38,615
05.01.2006 05:45;39,66
05.01.2006 06:00;41,143
05.01.2006 06:15;44,237
05.01.2006 06:30;46,779
05.01.2006 06:45;49,081
05.01.2006 07:00;51,485
05.01.2006 07:15;54,432
05.01.2006 07:30;56,635
05.01.2006 07:45;58,347
05.01.2006 08:00;60,366
05.01.2006 08:15;62,367
05.01.2006 08:30;63,474
05.01.2006 08:45;64,02
05.01.2006 09:00;64,524
05.01.2006 09:15;65,385
05.01.2006 09:30;66,267
05.01.2006 09:45;66,957
05.01.2006 10:00;67,6
05.01.2006 10:15;68,523
05.01.2006 10:30;68,599
05.01.2006 10:45;68,135
05.01.2006 11:00;68,212
05.01.2006 11:15;68,429
05.01.2006 11:30;68,404
05.01.2006 11:45;68,401
05.01.2006 12:00;68,74
05.01.2006 12:15;69,432
05.01.2006 12:30;68,957
05.01.2006 12:45;69,235
05.01.2006 13:00;69,13
05.01.2006 13:15;69,276
05.01.2006 13:30;69,256
05.01.2006 13:45;68,7
05.01.2006 14:00;68,961
05.01.2006 14:15;68,737
05.01.2006 14:30;68,635
05.01.2006 14:45;68,568
05.01.2006 15:00;68,823
05.01.2006 15:15;69,633
05.01.2006 15:30;69,96
05.01.2006 15:45;70,081
05.01.2006 16:00;70,776
05.01.2006 16:15;72,448
05.01.2006 16:30;74,012
05.01.2006 16:45;74,918
05.01.2006 17:00;75,551
05.01.2006 17:15;76,048
05.01.2006 17:30;75,882
05.01.2006 17:45;76,25
05.01.2006 18:00;76,32
05.01.2006 18:15;75,738
05.01.2006 18:30;75,382
05.01.2006 18:45;74,933
05.01.2006 19:00;74,863
05.01.2006 19:15;73,429
05.01.2006 19:30;71,511
05.01.2006 19:45;70,159
05.01.2006 20:00;69,151
05.01.2006 20:15;66,795
05.01.2006 20:30;63,319
05.01.2006 20:45;60,446
05.01.2006 21:00;58,351
05.01.2006 21:15;56,871
05.01.2006 21:30;55,583
05.01.2006 21:45;54,257
05.01.2006 22:00;53,754
05.01.2006 22:15;52,59
05.01.2006 22:30;51,897
05.01.2006 22:45;50,551
05.01.2006 23:00;48,583
05.01.2006 23:15;47,325
05.01.2006 23:30;46,398
05.01.2006 23:45;45,399
06.01.2006 00:00;44,361
06.01.2006 00:15;43,401
06.01.2006 00:30;42,892
06.01.2006 00:45;41,897
06.01.2006 01:00;40,582
06.01.2006 01:15;39,259
06.01.2006 01:30;38,398
06.01.2006 01:45;37,526
06.01.2006 02:00;36,799
06.01.2006 02:15;36,309
06.01.2006 02:30;35,843
06.01.2006 02:45;35,491
06.01.2006 03:00;35,171
06.01.2006 03:15;34,811
06.01.2006 03:30;34,514
06.01.2006 03:45;34,303
06.01.2006 04:00;34,305
06.01.2006 04:15;34,913
06.01.2006 04:30;35,224
06.01.2006 04:45;35,82
06.01.2006 05:00;36,366
06.01.2006 05:15;37,542
06.01.2006 05:30;38,709
06.01.2006 05:45;39,874
06.01.2006 06:00;41,312
06.01.2006 06:15;44,598
06.01.2006 06:30;47,03
06.01.2006 06:45;49,764
06.01.2006 07:00;51,831
06.01.2006 07:15;54,761
06.01.2006 07:30;56,936
06.01.2006 07:45;58,663
06.01.2006 08:00;60,698
06.01.2006 08:15;62,889
06.01.2006 08:30;64,387
06.01.2006 08:45;65,207
06.01.2006 09:00;65,887
06.01.2006 09:15;66,503
06.01.2006 09:30;67,262
06.01.2006 09:45;67,53
06.01.2006 10:00;67,764
06.01.2006 10:15;68,496
06.01.2006 10:30;68,852
06.01.2006 10:45;68,897
06.01.2006 11:00;69,023
06.01.2006 11:15;69,306
06.01.2006 11:30;69,644
06.01.2006 11:45;69,35
06.01.2006 12:00;69,639
06.01.2006 12:15;69,9
06.01.2006 12:30;70,01
06.01.2006 12:45;69,496
06.01.2006 13:00;69,244
06.01.2006 13:15;68,754
06.01.2006 13:30;68,56
06.01.2006 13:45;67,926
06.01.2006 14:00;68,119
06.01.2006 14:15;68,157
06.01.2006 14:30;68,029
06.01.2006 14:45;67,761
06.01.2006 15:00;67,689
06.01.2006 15:15;67,632
06.01.2006 15:30;68,107
06.01.2006 15:45;67,906
06.01.2006 16:00;68,523
06.01.2006 16:15;69,841
06.01.2006 16:30;71,026
06.01.2006 16:45;72,298
06.01.2006 17:00;73,165
06.01.2006 17:15;73,783
06.01.2006 17:30;73,892
06.01.2006 17:45;74,18
06.01.2006 18:00;74,084
06.01.2006 18:15;73,372
06.01.2006 18:30;72,571
06.01.2006 18:45;72,459
06.01.2006 19:00;71,752
06.01.2006 19:15;70,316
06.01.2006 19:30;68,716
06.01.2006 19:45;67,253
06.01.2006 20:00;66,16
06.01.2006 20:15;64,113
06.01.2006 20:30;61,09
06.01.2006 20:45;57,964
06.01.2006 21:00;55,961
06.01.2006 21:15;53,99
06.01.2006 21:30;52,702
06.01.2006 21:45;50,966
06.01.2006 22:00;50,581
06.01.2006 22:15;49,209
06.01.2006 22:30;48,52
06.01.2006 22:45;47,944
06.01.2006 23:00;47,104
06.01.2006 23:15;45,778
06.01.2006 23:30;45,206
06.01.2006 23:45;44,18
07.01.2006 00:00;43,267
07.01.2006 00:15;42,242
07.01.2006 00:30;41,785
07.01.2006 00:45;40,956
07.01.2006 01:00;40,346
07.01.2006 01:15;39,911
07.01.2006 01:30;39,279
07.01.2006 01:45;38,536
07.01.2006 02:00;38,254
07.01.2006 02:15;37,968
07.01.2006 02:30;37,375
07.01.2006 02:45;36,863
07.01.2006 03:00;36,395
07.01.2006 03:15;36,208
07.01.2006 03:30;36,01
07.01.2006 03:45;35,695
07.01.2006 04:00;35,343
07.01.2006 04:15;35,224
07.01.2006 04:30;34,92
07.01.2006 04:45;34,786
07.01.2006 05:00;34,737
07.01.2006 05:15;35,037
07.01.2006 05:30;35,055
07.01.2006 05:45;35,139
07.01.2006 06:00;35,289
07.01.2006 06:15;35,936
07.01.2006 06:30;36,19
07.01.2006 06:45;36,52
07.01.2006 07:00;36,848
07.01.2006 07:15;37,727
07.01.2006 07:30;38,359
07.01.2006 07:45;39,221
07.01.2006 08:00;40,354
07.01.2006 08:15;41,473
07.01.2006 08:30;42,708
07.01.2006 08:45;44,208
07.01.2006 09:00;45,525
07.01.2006 09:15;47,201
07.01.2006 09:30;48,604
07.01.2006 09:45;49,863
07.01.2006 10:00;51,303
07.01.2006 10:15;52,666
07.01.2006 10:30;53,623
07.01.2006 10:45;54,232
07.01.2006 11:00;54,492
07.01.2006 11:15;55,197
07.01.2006 11:30;55,953
07.01.2006 11:45;56,32
07.01.2006 12:00;56,596
07.01.2006 12:15;56,786
07.01.2006 12:30;56,763
07.01.2006 12:45;56,474
07.01.2006 13:00;56,101
07.01.2006 13:15;55,58
07.01.2006 13:30;54,939
07.01.2006 13:45;54,754
07.01.2006 14:00;54,677
07.01.2006 14:15;54,493
07.01.2006 14:30;54,307
07.01.2006 14:45;54,197
07.01.2006 15:00;54,241
07.01.2006 15:15;54,733
07.01.2006 15:30;55,315
07.01.2006 15:45;55,754
07.01.2006 16:00;56,243
07.01.2006 16:15;57,097
07.01.2006 16:30;58,087
07.01.2006 16:45;59,743
07.01.2006 17:00;60,336
07.01.2006 17:15;60,942
07.01.2006 17:30;61,335
07.01.2006 17:45;61,485
07.01.2006 18:00;61,551
07.01.2006 18:15;61,405
07.01.2006 18:30;60,85
07.01.2006 18:45;60,555
07.01.2006 19:00;59,751
07.01.2006 19:15;59,457
07.01.2006 19:30;58,918
07.01.2006 19:45;57,792
07.01.2006 20:00;57,13
07.01.2006 20:15;55,781
07.01.2006 20:30;53,657
07.01.2006 20:45;51,422
07.01.2006 21:00;49,991
07.01.2006 21:15;48,827
07.01.2006 21:30;47,567
07.01.2006 21:45;46,511
07.01.2006 22:00;46,02
07.01.2006 22:15;45,334
07.01.2006 22:30;44,881
07.01.2006 22:45;44,432
07.01.2006 23:00;44,306
07.01.2006 23:15;43,506
07.01.2006 23:30;42,719
07.01.2006 23:45;42,212
08.01.2006 00:00;41,676
08.01.2006 00:15;40,694
08.01.2006 00:30;40,018
08.01.2006 00:45;39,175
08.01.2006 01:00;39,273
08.01.2006 01:15;38,638
08.01.2006 01:30;37,801
08.01.2006 01:45;37,087
08.01.2006 02:00;36,694
08.01.2006 02:15;36,391
08.01.2006 02:30;36,141
08.01.2006 02:45;35,873
08.01.2006 03:00;35,542
08.01.2006 03:15;35,062
08.01.2006 03:30;34,838
08.01.2006 03:45;34,507
08.01.2006 04:00;34,118
08.01.2006 04:15;33,903
08.01.2006 04:30;33,887
08.01.2006 04:45;33,684
08.01.2006 05:00;33,591
08.01.2006 05:15;33,644
08.01.2006 05:30;33,531
08.01.2006 05:45;33,53
08.01.2006 06:00;33,494
08.01.2006 06:15;33,912
08.01.2006 06:30;33,949
08.01.2006 06:45;34,074
08.01.2006 07:00;34,221
08.01.2006 07:15;34,638
08.01.2006 07:30;35
08.01.2006 07:45;35,476
08.01.2006 08:00;36,04
08.01.2006 08:15;36,657
08.01.2006 08:30;37,486
08.01.2006 08:45;38,379
08.01.2006 09:00;39,149
08.01.2006 09:15;40,185
08.01.2006 09:30;41,013
08.01.2006 09:45;42,004
08.01.2006 10:00;42,835
08.01.2006 10:15;43,88
08.01.2006 10:30;44,93
08.01.2006 10:45;45,661
08.01.2006 11:00;46,416
08.01.2006 11:15;47,314
08.01.2006 11:30;48,222
08.01.2006 11:45;49,201
08.01.2006 12:00;49,794
08.01.2006 12:15;49,993
08.01.2006 12:30;50,052
08.01.2006 12:45;49,723
08.01.2006 13:00;49,389
08.01.2006 13:15;48,501
08.01.2006 13:30;47,853
08.01.2006 13:45;47,443
08.01.2006 14:00;46,925
08.01.2006 14:15;46,574
08.01.2006 14:30;46,137
08.01.2006 14:45;45,956
08.01.2006 15:00;45,594
08.01.2006 15:15;45,445
08.01.2006 15:30;45,591
08.01.2006 15:45;45,85
08.01.2006 16:00;46,289
08.01.2006 16:15;47,386
08.01.2006 16:30;49,325
08.01.2006 16:45;52,156
08.01.2006 17:00;53,955
08.01.2006 17:15;55,082
08.01.2006 17:30;56,114
08.01.2006 17:45;56,742
08.01.2006 18:00;57,005
08.01.2006 18:15;57,652
08.01.2006 18:30;57,871
08.01.2006 18:45;58,031
08.01.2006 19:00;57,89
08.01.2006 19:15;57,507
08.01.2006 19:30;57,286
08.01.2006 19:45;56,584
08.01.2006 20:00;55,877
08.01.2006 20:15;54,915
08.01.2006 20:30;53,053
08.01.2006 20:45;51,573
08.01.2006 21:00;51,292
08.01.2006 21:15;50,066
08.01.2006 21:30;50,111
08.01.2006 21:45;49,624
08.01.2006 22:00;50,254
08.01.2006 22:15;49,402
08.01.2006 22:30;49,369
08.01.2006 22:45;48,652
08.01.2006 23:00;47,576
08.01.2006 23:15;46,461
08.01.2006 23:30;45,188
08.01.2006 23:45;44,35
09.01.2006 00:00;43,072
09.01.2006 00:15;41,542
09.01.2006 00:30;40,621
09.01.2006 00:45;39,967
09.01.2006 01:00;38,758
09.01.2006 01:15;37,732
09.01.2006 01:30;36,965
09.01.2006 01:45;36,126
09.01.2006 02:00;35,509
09.01.2006 02:15;35,065
09.01.2006 02:30;34,785
09.01.2006 02:45;34,339
09.01.2006 03:00;34,073
09.01.2006 03:15;33,874
09.01.2006 03:30;33,744
09.01.2006 03:45;33,671
09.01.2006 04:00;33,665
09.01.2006 04:15;34,287
09.01.2006 04:30;34,766
09.01.2006 04:45;35,325
09.01.2006 05:00;35,939
09.01.2006 05:15;37,404
09.01.2006 05:30;38,465
09.01.2006 05:45;40,079
09.01.2006 06:00;42,028
09.01.2006 06:15;45,629
09.01.2006 06:30;48,418
09.01.2006 06:45;51,021
09.01.2006 07:00;53,759
09.01.2006 07:15;56,968
09.01.2006 07:30;59,142
09.01.2006 07:45;60,656
09.01.2006 08:00;61,844
09.01.2006 08:15;63,086
09.01.2006 08:30;63,741
09.01.2006 08:45;63,875
09.01.2006 09:00;64,008
09.01.2006 09:15;64,456
09.01.2006 09:30;64,719
09.01.2006 09:45;64,747
09.01.2006 10:00;64,766
09.01.2006 10:15;65,361
09.01.2006 10:30;65,551
09.01.2006 10:45;65,351
09.01.2006 11:00;65,441
09.01.2006 11:15;65,569
09.01.2006 11:30;65,737
09.01.2006 11:45;65,668
09.01.2006 12:00;65,532
09.01.2006 12:15;65,617
09.01.2006 12:30;65,839
09.01.2006 12:45;65,541
09.01.2006 13:00;65,108
09.01.2006 13:15;65,641
09.01.2006 13:30;66,032
09.01.2006 13:45;65,588
09.01.2006 14:00;65,211
09.01.2006 14:15;64,823
09.01.2006 14:30;65,225
09.01.2006 14:45;65,394
09.01.2006 15:00;65,258
09.01.2006 15:15;65,301
09.01.2006 15:30;64,952
09.01.2006 15:45;65,599
09.01.2006 16:00;65,931
09.01.2006 16:15;66,928
09.01.2006 16:30;68,561
09.01.2006 16:45;71,623
09.01.2006 17:00;74,227
09.01.2006 17:15;75,925
09.01.2006 17:30;76,216
09.01.2006 17:45;76,546
09.01.2006 18:00;76,644
09.01.2006 18:15;76,5
09.01.2006 18:30;76,232
09.01.2006 18:45;75,407
09.01.2006 19:00;75,215
09.01.2006 19:15;74,456
09.01.2006 19:30;73,145
09.01.2006 19:45;71,029
09.01.2006 20:00;70,09
09.01.2006 20:15;68,088
09.01.2006 20:30;64,766
09.01.2006 20:45;62,185
09.01.2006 21:00;60,17
09.01.2006 21:15;59,367
09.01.2006 21:30;58,537
09.01.2006 21:45;57,024
09.01.2006 22:00;56,574
09.01.2006 22:15;55,162
09.01.2006 22:30;54,13
09.01.2006 22:45;52,227
09.01.2006 23:00;51,452
09.01.2006 23:15;49,942
09.01.2006 23:30;48,468
09.01.2006 23:45;46,571
10.01.2006 00:00;45,56
10.01.2006 00:15;44,53
10.01.2006 00:30;43,487
10.01.2006 00:45;42,641
10.01.2006 01:00;41,402
10.01.2006 01:15;40,341
10.01.2006 01:30;39,561
10.01.2006 01:45;38,639
10.01.2006 02:00;37,947
10.01.2006 02:15;37,378
10.01.2006 02:30;37,002
10.01.2006 02:45;36,558
10.01.2006 03:00;36,224
10.01.2006 03:15;36,106
10.01.2006 03:30;35,948
10.01.2006 03:45;35,866
10.01.2006 04:00;35,912
10.01.2006 04:15;36,569
10.01.2006 04:30;36,915
10.01.2006 04:45;37,465
10.01.2006 05:00;37,939
10.01.2006 05:15;39,219
10.01.2006 05:30;40,183
10.01.2006 05:45;41,583
10.01.2006 06:00;43,459
10.01.2006 06:15;46,845
10.01.2006 06:30;49,614
10.01.2006 06:45;52,298
10.01.2006 07:00;54,649
10.01.2006 07:15;57,99
10.01.2006 07:30;59,792
10.01.2006 07:45;61,775
10.01.2006 08:00;63,02
10.01.2006 08:15;64,267
10.01.2006 08:30;65,009
10.01.2006 08:45;64,931
10.01.2006 09:00;64,772
10.01.2006 09:15;65,278
10.01.2006 09:30;65,52
10.01.2006 09:45;65,69
10.01.2006 10:00;65,775
10.01.2006 10:15;66,312
10.01.2006 10:30;65,93
10.01.2006 10:45;65,99
10.01.2006 11:00;65,773
10.01.2006 11:15;65,682
10.01.2006 11:30;65,798
10.01.2006 11:45;65,562
10.01.2006 12:00;65,528
10.01.2006 12:15;65,859
10.01.2006 12:30;65,958
10.01.2006 12:45;65,64
10.01.2006 13:00;65,26
10.01.2006 13:15;64,983
10.01.2006 13:30;64,566
10.01.2006 13:45;64,374
10.01.2006 14:00;64,293
10.01.2006 14:15;64,175
10.01.2006 14:30;63,982
10.01.2006 14:45;63,58
10.01.2006 15:00;63,235
10.01.2006 15:15;63,421
10.01.2006 15:30;63,305
10.01.2006 15:45;63,276
10.01.2006 16:00;63,759
10.01.2006 16:15;65,871
10.01.2006 16:30;68,893
10.01.2006 16:45;71,561
10.01.2006 17:00;74,065
10.01.2006 17:15;75,363
10.01.2006 17:30;75,998
10.01.2006 17:45;76,49
10.01.2006 18:00;76,843
10.01.2006 18:15;75,998
10.01.2006 18:30;75,468
10.01.2006 18:45;74,906
10.01.2006 19:00;74,504
10.01.2006 19:15;73,63
10.01.2006 19:30;72,299
10.01.2006 19:45;70,949
10.01.2006 20:00;69,699
10.01.2006 20:15;67,46
10.01.2006 20:30;64,119
10.01.2006 20:45;61,256
10.01.2006 21:00;58,786
10.01.2006 21:15;57,655
10.01.2006 21:30;56,435
10.01.2006 21:45;54,943
10.01.2006 22:00;54,786
10.01.2006 22:15;53,572
10.01.2006 22:30;52,996
10.01.2006 22:45;51,366
10.01.2006 23:00;49,583
10.01.2006 23:15;48,294
10.01.2006 23:30;47,549
10.01.2006 23:45;46,577